Cosmos 1400 Rocket - Orbit

View from above orbital plane
View from above orbital plane
View from above satellite
View from above satellite

Ground track
Ground track

The orbit data is extracted from the following two-line orbital elements,

1 13403U 82079B   13141.78697863  .00001928  00000-0  14395-3 0  2988
2 13403 081.1701 167.9757 0038870 124.9975 235.4905 15.01779132673040
Epoch (UTC): 21 May 2013 18:53:14
Eccentricity: 0.0038870
inclination: 81.1701°
perigee height: 534 km
apogee height: 588 km
right ascension of ascending node: 167.9757°
argument of perigee: 124.9975°
revolutions per day: 15.01779132
mean anomaly at epoch: 235.4905°
orbit number at epoch: 67304

The dashed part of the orbit path shows where the satellite is in the earth's shadow,  

Developed and maintained by Chris Peat, Heavens-Above GmbH. Please read the updated FAQ before sending e-mail. Imprint. DLR